BEIDOU-3 G3

Last updated on Mon Oct 14 2024 00:02:41 GMT+0000 (Coordinated Universal Time)

1 45807U 20040A 24287.53051824 -.00000354 00000+0 00000+0 0 9992 2 45807 1.0003 53.5057 0002800 299.5089 331.1379 1.00269043 15937
UTC large
Height (km)
Speed (km/s)
/
Latitude / Longitude
Inclination (degrees)
Orbital Period (minutes)
Azimuth
Elevation
Range (km)
Doppler Factor

Next 0 passes for location: London (51.5072 / 0.1276)

Sorry there are no passes over London.